sat.trackr.live / text

‹ back to catalog

STARLINK-1347

NORAD 45586 · 2020-025BH

PAYLOAD ACTIVE UNKNOWN

§ Identity

Operator
Country
US
Launch date
2020-04-22
Launch site
AFETR
Launch vehicle
Mass (kg)
RCS (m²)

Purposes: comms

External: N2YO · Heavens-Above · Gunter

§ Orbital elements

Epoch: 2026-05-25T00:52:07.557312Z

Period
91.91 min
Inclination
53.0400°
Eccentricity
0.0004434
Mean motion
15.66803245 rev/d
Perigee alt
365.1 km
Apogee alt
371.0 km
Semi-major
6,746.2 km
B*
4.8045e-4
RAAN
16.6664°
Arg perigee
95.5911°
Mean anomaly
264.5609°
Rev number
33,809

§ Raw data

STARLINK-13471 45586U 20025BH  26145.03619858  .00051455  00000+0  48045-3 0  99982 45586  53.0400  16.6664 0004434  95.5911 264.5609 15.66803245338091

JSON: /api/v1/satellites/45586 · /tle

For live sub-satellite position, see the globe view (requires WebGL).

§ Visibility from observer

Set your observer location to see the next 7 days of passes ≥ 10°. The values pass through the URL so the page stays shareable.

No JS? Fill the form by hand. The geolocation button needs JavaScript.